Location: Domont
(49.0278°N, 2.3264°E)
Time: 11:59:42
(UTC+00:00)

NOAA 18 - Pass Details

Date: 27 June 2022
Orbit: 839 x 860 km, 98.9° (Epoch: 13 August)

Event Time Altitude Azimuth Distance (km) Brightness Sun altitude
Exits shadow 21:45:25 11° 181° (S) 2,368 7.0 -12.2°
Maximum altitude 21:50:32 56° 259° (W) 1,013 5.7 -12.6°
Drops below altitude 10° 21:55:59 10° 337° (NNW) 2,502 9.1 -13.0°
Sets 21:58:26 0° 342° (NNW) 3,445 10.3 -13.2°
